Kenai, AK

3:20 PM AKDT on July 25, 2017 (GMT -0800)
Kenai Municipal

Weather History for PAEN - March, 2014

Change the Weather History Date:

Wednesday, March 19, 2014

  Actual Average Record
Temperature  
Mean Temperature 22 °F -  
Max Temperature 34 °F 34 °F 48 °F (1998)
Min Temperature 10 °F 17 °F -15 °F (1959)
Degree Days  
Heating Degree Days 43    
Moisture  
Dew Point 14 °F    
Average Humidity 72    
Maximum Humidity 100    
Minimum Humidity 42    
Precipitation  
Precipitation 0.00 in - - ()
Sea Level Pressure  
Sea Level Pressure 30.13 in    
Wind  
Wind Speed 4 mph (North)    
Max Wind Speed 15 mph    
Max Gust Speed -    
Visibility 9 miles    
Events Fog    
Averages and records for this station are not official NWS values.
T = Trace of Precipitation, MM = Missing Value Source: NWS Daily Summary

Daily Weather History Graph

Daily Weather History Graph

Search for Another Location

Airport or City:

Trip Planner

Search our weather history database for the weather conditions in past years. The results will help you decide how hot, cold, wet, or windy it might be!

Date:

Astronomy

Mar. 19, 2014 Rise Set
Actual Time 8:08 AM AKDT 8:17 PM AKDT
Civil Twilight 7:26 AM AKDT 9:00 PM AKDT
Nautical Twilight 6:35 AM AKDT 9:51 PM AKDT
Astronomical Twilight 5:40 AM AKDT 10:46 PM AKDT
Moon No Moon Rise 8:50 AM AKDT (3/19)
Length of Visible Light 13h 33m
Length of Day
12h 09m
Waning Gibbous, 90% of the Moon is Illuminated
Mar 19
Waning Gibbous
Mar 23
Last Quarter
Mar 30
New
Apr 7
First Quarter
Apr 14
Full

Hourly Weather History & Observations

Time (AKDT) Temp. Windchill Dew Point Humidity Pressure Visibility Wind Dir Wind Speed Gust Speed Precip Events Conditions
12:18 AM 15.8 °F - 15.8 °F 100% 30.02 in 0.5 mi Calm Calm - N/A Fog Light Freezing Fog
12:41 AM 15.8 °F - 15.8 °F 100% 30.03 in 2.0 mi Calm Calm - N/A   Mostly Cloudy
12:47 AM 15.8 °F 10.2 °F 15.8 °F 100% 30.03 in 10.0 mi West 3.5 mph - N/A   Scattered Clouds
12:48 AM 16.0 °F - 15.1 °F 96% 30.04 in 10.0 mi Calm Calm - N/A   Scattered Clouds
12:58 AM 17.6 °F - 15.8 °F 93% 30.03 in 2.5 mi Calm Calm - N/A   Partly Cloudy
1:07 AM 15.8 °F - 15.8 °F 100% 30.03 in 10.0 mi Calm Calm - N/A   Clear
1:53 AM 17.1 °F 7.6 °F 17.1 °F 100% 30.05 in 10.0 mi NNW 6.9 mph - N/A   Clear
2:53 AM 24.1 °F 13.7 °F 18.0 °F 77% 30.06 in 10.0 mi NNW 10.4 mph - N/A   Clear
3:53 AM 19.9 °F - 14.0 °F 78% 30.07 in 10.0 mi Calm Calm - N/A   Clear
4:53 AM 21.9 °F 11.0 °F 15.1 °F 75% 30.09 in 10.0 mi NW 10.4 mph - N/A   Clear
5:53 AM 17.1 °F 11.7 °F 12.9 °F 84% 30.10 in 10.0 mi WNW 3.5 mph - N/A   Clear
6:53 AM 16.0 °F - 12.0 °F 84% 30.12 in 10.0 mi Calm Calm - N/A   Clear
7:53 AM 12.0 °F - 9.0 °F 88% 30.12 in 10.0 mi Calm Calm - N/A   Clear
8:53 AM 10.9 °F - 8.1 °F 88% 30.13 in 10.0 mi Calm Calm - N/A   Clear
9:53 AM 24.1 °F - 15.1 °F 69% 30.13 in 10.0 mi Calm Calm - N/A   Clear
10:53 AM 27.0 °F - 17.1 °F 66% 30.14 in 10.0 mi Calm Calm - N/A   Clear
11:53 AM 30.9 °F 27.5 °F 17.1 °F 57% 30.16 in 10.0 mi NNE 3.5 mph - N/A   Clear
12:53 PM 30.9 °F 21.2 °F 16.0 °F 54% 30.16 in 10.0 mi North 12.7 mph - N/A   Clear
1:53 PM 33.1 °F 24.4 °F 16.0 °F 50% 30.16 in 10.0 mi NNE 11.5 mph - N/A   Clear
2:53 PM 33.1 °F 23.0 °F 15.1 °F 48% 30.17 in 10.0 mi North 15.0 mph - N/A   Clear
3:53 PM 34.0 °F 24.2 °F 14.0 °F 44% 30.17 in 10.0 mi North 15.0 mph - N/A   Clear
4:53 PM 34.0 °F 25.0 °F 12.9 °F 42% 30.17 in 10.0 mi North 12.7 mph - N/A   Clear
5:53 PM 33.1 °F 23.0 °F 12.9 °F 43% 30.18 in 10.0 mi North 15.0 mph - N/A   Clear
6:53 PM 32.0 °F 23.0 °F 12.9 °F 45% 30.19 in 10.0 mi North 11.5 mph - N/A   Clear
7:53 PM 28.0 °F 20.8 °F 12.0 °F 51% 30.19 in 10.0 mi North 6.9 mph - N/A   Clear
8:53 PM 24.1 °F 16.0 °F 12.0 °F 60% 30.21 in 10.0 mi North 6.9 mph - N/A   Clear
9:53 PM 23.0 °F 18.4 °F 12.0 °F 63% 30.22 in 10.0 mi North 3.5 mph - N/A   Clear
10:53 PM 21.0 °F 16.2 °F 12.0 °F 68% 30.24 in 10.0 mi North 3.5 mph - N/A   Clear
11:53 PM 17.1 °F 10.0 °F 10.9 °F 77% 30.25 in 10.0 mi NNE 4.6 mph - N/A   Clear